Tracking 35334 objects as of 12-Sep-2026
HD Live streaming from Space Station
objects crossing your sky now

ICEYE-X44

Track ICEYE-X44 now!
10-day predictions
ICEYE-X44 is classified as:


NORAD ID: 62707
Int'l Code: 2025-009DC
Launch date: January 14, 2025
Source: (FIN)
Launch site: AIR FORCE WESTERN TEST RANGE (AFWTR)

Uplink (MHz):
Downlink (MHz): 2269.725
Beacon (MHz):
Mode: FM
Call sign:
Status: Unknown

Your satellite tracking list
Your tracking list is empty




NASA's NSSDC Master Catalog

Two Line Element Set (TLE):
1 62707U 25009DC  26255.15811841  .00002261  00000-0  20456-3 0  9998
2 62707  97.7002 332.9064 0001810 144.5297 215.6045 14.96416719112946
Source of the keplerian elements: AFSPC